Stündliche Wetter Laby

Heute, 10 Mai, Montag

Zeit Temperatur Niederschläge Wind Luftdruck Luftfeuchtigkeit
00:00 +5°C° 0 mm 3 m/S 742 mmHg 69%
01:00 +5°C° 0 mm 3 m/S 743 mmHg 68%
02:00 +7°C° 0 mm 3 m/S 743 mmHg 67%
03:00 +7°C° 0 mm 3 m/S 743 mmHg 68%
04:00 +5°C° 0 mm 4 m/S 743 mmHg 69%
05:00 +5°C° 0 mm 4 m/S 743 mmHg 70%
06:00 +7°C° 0 mm 4 m/S 743 mmHg 69%
07:00 +8°C° 0 mm 5 m/S 743 mmHg 67%
08:00 +9°C° 0 mm 5 m/S 743 mmHg 65%
09:00 +12°C° 0 mm 5 m/S 744 mmHg 62%
10:00 +13°C° 0 mm 5 m/S 744 mmHg 58%
11:00 +15°C° 0 mm 5 m/S 744 mmHg 55%
12:00 +16°C° 0 mm 5 m/S 744 mmHg 54%
13:00 +16°C° 0 mm 5 m/S 743 mmHg 53%
14:00 +17°C° 0 mm 5 m/S 743 mmHg 52%
15:00 +17°C° 0 mm 5 m/S 743 mmHg 55%
16:00 +18°C° 0 mm 4 m/S 743 mmHg 58%
17:00 +17°C° 0 mm 4 m/S 743 mmHg 60%
18:00 +15°C° 0 mm 4 m/S 743 mmHg 66%
19:00 +13°C° 0 mm 3 m/S 743 mmHg 72%
20:00 +11°C° 0 mm 3 m/S 743 mmHg 78%
21:00 +10°C° 0 mm 3 m/S 743 mmHg 78%
22:00 +9°C° 0 mm 3 m/S 743 mmHg 79%
23:00 +8°C° 0 mm 3 m/S 744 mmHg 79%

Morgen, 11 Mai, Dienstag

Zeit Temperatur Niederschläge Wind Luftdruck Luftfeuchtigkeit
00:00 +8°C° 0 mm 3 m/S 744 mmHg 79%
01:00 +7°C° 0 mm 3 m/S 744 mmHg 78%
02:00 +7°C° 0 mm 3 m/S 744 mmHg 78%
03:00 +7°C° 0 mm 3 m/S 744 mmHg 77%
04:00 +5°C° 0 mm 3 m/S 744 mmHg 76%
05:00 +5°C° 0 mm 3 m/S 744 mmHg 75%
06:00 +7°C° 0 mm 4 m/S 744 mmHg 70%
07:00 +8°C° 0 mm 4 m/S 744 mmHg 66%
08:00 +10°C° 0 mm 5 m/S 744 mmHg 61%
09:00 +13°C° 0 mm 5 m/S 744 mmHg 57%
10:00 +14°C° 0 mm 5 m/S 744 mmHg 53%
11:00 +15°C° 0 mm 4 m/S 744 mmHg 48%
12:00 +17°C° 0 mm 4 m/S 744 mmHg 47%
13:00 +18°C° 0 mm 4 m/S 743 mmHg 45%
14:00 +18°C° 0 mm 4 m/S 743 mmHg 43%
15:00 +18°C° 0 mm 4 m/S 743 mmHg 47%
16:00 +18°C° 0 mm 4 m/S 742 mmHg 50%
17:00 +18°C° 0 mm 4 m/S 742 mmHg 54%
18:00 +15°C° 0 mm 4 m/S 742 mmHg 62%
19:00 +14°C° 0 mm 4 m/S 742 mmHg 70%
20:00 +12°C° 0 mm 3 m/S 741 mmHg 77%
21:00 +11°C° 0 mm 3 m/S 741 mmHg 82%
22:00 +11°C° 0 mm 3 m/S 741 mmHg 86%
23:00 +11°C° 0 mm 3 m/S 741 mmHg 90%

übermorgen, 12 Mai, Mittwoch

Zeit Temperatur Niederschläge Wind Luftdruck Luftfeuchtigkeit
00:00 +11°C° 0 mm 3 m/S 741 mmHg 91%
01:00 +10°C° 0 mm 3 m/S 741 mmHg 92%
02:00 +10°C° 0 mm 3 m/S 741 mmHg 94%
03:00 +10°C° 0 mm 4 m/S 741 mmHg 95%
04:00 +10°C° 0 mm 4 m/S 741 mmHg 95%
05:00 +10°C° 0 mm 4 m/S 741 mmHg 96%
06:00 +9°C° 0 mm 5 m/S 741 mmHg 89%
07:00 +10°C° 0 mm 5 m/S 741 mmHg 82%
08:00 +11°C° 0 mm 6 m/S 741 mmHg 74%
09:00 +13°C° 0 mm 6 m/S 741 mmHg 69%
10:00 +13°C° 0 mm 6 m/S 741 mmHg 63%
11:00 +14°C° 0 mm 6 m/S 741 mmHg 58%
12:00 +15°C° 0 mm 6 m/S 741 mmHg 56%
13:00 +15°C° 0 mm 5 m/S 740 mmHg 54%
14:00 +16°C° 0 mm 5 m/S 740 mmHg 52%
15:00 +17°C° 0 mm 4 m/S 740 mmHg 53%
16:00 +17°C° 0 mm 4 m/S 739 mmHg 55%
17:00 +17°C° 0 mm 3 m/S 739 mmHg 56%
18:00 +14°C° 0 mm 3 m/S 738 mmHg 62%
19:00 +14°C° 0 mm 2 m/S 737 mmHg 67%
20:00 +12°C° 0 mm 1 m/S 737 mmHg 72%
21:00 +12°C° 0 mm 2 m/S 736 mmHg 73%
22:00 +12°C° 0 mm 2 m/S 735 mmHg 73%
23:00 +10°C° 0 mm 3 m/S 734 mmHg 73%

13 Mai, Donnerstag

Zeit Temperatur Niederschläge Wind Luftdruck Luftfeuchtigkeit
00:00 +10°C° 1.1 mm 3 m/S 733 mmHg 80%
01:00 +10°C° 1.1 mm 4 m/S 732 mmHg 87%
02:00 +8°C° 1.1 mm 4 m/S 731 mmHg 94%
03:00 +8°C° 1.1 mm 4 m/S 730 mmHg 95%
04:00 +8°C° 1.1 mm 3 m/S 730 mmHg 95%
05:00 +7°C° 1.1 mm 3 m/S 729 mmHg 95%
06:00 +7°C° 0.2 mm 2 m/S 729 mmHg 94%
07:00 +8°C° 0.2 mm 2 m/S 729 mmHg 93%
08:00 +9°C° 0.2 mm 1 m/S 729 mmHg 92%
09:00 +8°C° 1.8 mm 3 m/S 729 mmHg 93%
10:00 +7°C° 1.8 mm 6 m/S 730 mmHg 94%
11:00 +6°C° 1.8 mm 8 m/S 730 mmHg 94%
12:00 +6°C° 1.2 mm 7 m/S 731 mmHg 93%
13:00 +8°C° 1.2 mm 6 m/S 731 mmHg 92%
14:00 +8°C° 1.2 mm 6 m/S 732 mmHg 90%
15:00 +9°C° 0.1 mm 6 m/S 732 mmHg 86%
16:00 +10°C° 0.1 mm 5 m/S 732 mmHg 82%
17:00 +12°C° 0.1 mm 5 m/S 732 mmHg 78%
18:00 +12°C° 0 mm 5 m/S 732 mmHg 80%
19:00 +10°C° 0 mm 5 m/S 732 mmHg 82%
20:00 +10°C° 0 mm 4 m/S 732 mmHg 83%
21:00 +9°C° 0 mm 5 m/S 732 mmHg 84%
22:00 +9°C° 0 mm 5 m/S 732 mmHg 86%
23:00 +9°C° 0 mm 5 m/S 732 mmHg 87%

14 Mai, Freitag

Zeit Temperatur Niederschläge Wind Luftdruck Luftfeuchtigkeit
00:00 +9°C° 0.1 mm 5 m/S 732 mmHg 87%
01:00 +9°C° 0.1 mm 5 m/S 732 mmHg 88%
02:00 +9°C° 0.1 mm 5 m/S 732 mmHg 88%
03:00 +9°C° 0 mm 5 m/S 732 mmHg 90%
04:00 +10°C° 0 mm 4 m/S 732 mmHg 91%
05:00 +8°C° 0 mm 4 m/S 732 mmHg 93%
06:00 +10°C° 0 mm 4 m/S 732 mmHg 92%
07:00 +10°C° 0 mm 4 m/S 732 mmHg 91%
08:00 +10°C° 0 mm 5 m/S 732 mmHg 90%
09:00 +12°C° 0.1 mm 5 m/S 733 mmHg 85%
10:00 +13°C° 0.1 mm 5 m/S 733 mmHg 80%
11:00 +15°C° 0.1 mm 5 m/S 733 mmHg 76%
12:00 +15°C° 0.3 mm 5 m/S 732 mmHg 74%
13:00 +16°C° 0.3 mm 5 m/S 732 mmHg 72%
14:00 +17°C° 0.3 mm 4 m/S 732 mmHg 71%
15:00 +18°C° 0.2 mm 4 m/S 732 mmHg 71%
16:00 +18°C° 0.2 mm 3 m/S 732 mmHg 71%
17:00 +18°C° 0.2 mm 3 m/S 731 mmHg 71%
18:00 +16°C° 0.2 mm 2 m/S 731 mmHg 76%
19:00 +15°C° 0.2 mm 2 m/S 731 mmHg 82%
20:00 +14°C° 0.2 mm 1 m/S 731 mmHg 87%
21:00 +13°C° 0.1 mm 1 m/S 731 mmHg 88%
22:00 +12°C° 0.1 mm 1 m/S 731 mmHg 89%
23:00 +12°C° 0.1 mm 1 m/S 731 mmHg 91%

15 Mai, Samstag

Zeit Temperatur Niederschläge Wind Luftdruck Luftfeuchtigkeit
00:00 +11°C° 0 mm 1 m/S 731 mmHg 91%
01:00 +11°C° 0 mm 1 m/S 731 mmHg 92%
02:00 +11°C° 0 mm 1 m/S 731 mmHg 93%
03:00 +11°C° 0 mm 1 m/S 731 mmHg 93%
04:00 +11°C° 0 mm 1 m/S 731 mmHg 94%
05:00 +10°C° 0 mm 1 m/S 731 mmHg 94%
06:00 +12°C° 0 mm 1 m/S 731 mmHg 90%
07:00 +14°C° 0 mm 1 m/S 731 mmHg 87%
08:00 +15°C° 0 mm 1 m/S 732 mmHg 83%
09:00 +16°C° 0.4 mm 1 m/S 732 mmHg 79%
10:00 +17°C° 0.4 mm 2 m/S 732 mmHg 75%
11:00 +18°C° 0.4 mm 2 m/S 732 mmHg 71%
12:00 +19°C° 0.4 mm 3 m/S 732 mmHg 69%
13:00 +19°C° 0.4 mm 3 m/S 732 mmHg 67%
14:00 +19°C° 0.4 mm 3 m/S 731 mmHg 66%
15:00 +19°C° 0.2 mm 3 m/S 731 mmHg 67%
16:00 +19°C° 0.2 mm 3 m/S 731 mmHg 68%
17:00 +19°C° 0.2 mm 3 m/S 731 mmHg 70%
18:00 +17°C° 0.1 mm 2 m/S 731 mmHg 75%
19:00 +16°C° 0.1 mm 2 m/S 731 mmHg 80%
20:00 +15°C° 0.1 mm 2 m/S 731 mmHg 85%
21:00 +14°C° 0 mm 2 m/S 731 mmHg 86%
22:00 +14°C° 0 mm 1 m/S 731 mmHg 88%
23:00 +13°C° 0 mm 1 m/S 731 mmHg 89%
Mehr zeigen

Wir brauchen deine Erlaubnis

Meteoprog und unser Service Anbieter werden persönliche Daten aufbewahren, so wie Cookies, Geräte Bezeichnung oder ähnliche Technologien von deinem Gerät und Prozess, so wie Persönliche Daten Inhalte und Werbungen, genauso wie social Media und den Verkehr zu analysieren.

  • Aufbewahrung und/oder Zugang zu deiner Geräte Informationen.

    Cookies, Geräte Bezeichnung oder andere Informationen, können aufbewahrt oder Zugang zu deinem Gerät erhalten, für den Grund, der oben angegeben wird.

  • Personalisierte Werbung und Inhalte, Messungen, Einblick in das Publikum und Produkt Entwicklung.

    Werbungen und Inhalte können personalisiert werden, basierend auf ein Profil. Mehr Daten können besser personalisierte Werbungen und Inhalte hinzufügen. Werbung und Inhalte können gezeigt und gemessen werden. Einblicke über das Publikum, welche die Werbung gesehen haben und den Inhalt, können abgeleitet werden. So wie Daten können genutzt werden, um es zu verbessern oder die Benutzer Erfahrung zu verbessern das System und die Software.

Wenn du “Ich stimme zu” klickst, erlaubst du uns, die Cookies zu benutzen die Geräte Bezeichnung, den Web oder ähnliche Technologien zu benutzen. Deine Settings, können in deinem Gerät bei deinem Browser geändert werden.

Für den bestimmten Zweck, berechtigten Interessen beruhen darauf, mehr als auf den Inhalt. Du kannst mehr darüber in unseren Privaten und Cookie Politik lesen.